This is the latest recevied weather packets stored in our database for station/object KD7AWQ. If no packets are shown the sender has not sent any weather packets the latest 10 day(s).
| Time | Temp. | Humidity | Pressure | Rain* | Wind** | Luminosity | Snow |
|---|---|---|---|---|---|---|---|
| 1788082047 | 22.78° C | 57% | 1189.2 hPa | 0 mm | - | 0 W/m² | - |
| 1788081744 | 22.78° C | 55% | 1189.2 hPa | 0 mm | - | 0 W/m² | - |
| 1788081440 | 22.78° C | 55% | 1189.3 hPa | 0 mm | - | 0 W/m² | - |
| 1788081139 | 21.67° C | 60% | 1189.6 hPa | 0 mm | - | 0 W/m² | - |
| 1788080838 | 21.11° C | 64% | 1189.6 hPa | 0 mm | - | 0 W/m² | - |
| 1788080535 | 21.11° C | 69% | 1189.6 hPa | 0 mm | - | 0 W/m² | - |
| 1788080234 | 21.11° C | 71% | 1189.2 hPa | 0 mm | - | 0 W/m² | - |
| 1788079929 | 21.11° C | 72% | 1189.5 hPa | 0 mm | - | 0 W/m² | - |
| 1788079624 | 21.11° C | 72% | 1189.5 hPa | 0 mm | - | 0 W/m² | - |
| 1788079320 | 21.11° C | 71% | 1189.5 hPa | 1.78 mm | - | 0 W/m² | - |
| 1788079015 | 21.67° C | 69% | 1189.6 hPa | 4.83 mm | - | 0 W/m² | - |
| 1788078710 | 22.78° C | 62% | 1189.3 hPa | 3.05 mm | - | 0 W/m² | - |
| 1788078410 | 23.33° C | 55% | 1189.5 hPa | 0 mm | - | 0 W/m² | - |
| 1788078106 | 22.78° C | 55% | 1189.6 hPa | 0 mm | - | 0 W/m² | - |
| 1788077802 | 22.78° C | 56% | 1189.8 hPa | 0 mm | - | 0 W/m² | - |
| 1788077501 | 22.78° C | 57% | 1189.2 hPa | 0 mm | - | 0 W/m² | - |
| 1788077196 | 22.78° C | 58% | 1189.5 hPa | 0 mm | - | 0 W/m² | - |
| 1788076891 | 22.78° C | 59% | 1189.7 hPa | 0 mm | - | 0 W/m² | - |
| 1788076590 | 22.78° C | 58% | 1189.3 hPa | 0 mm | - | 0 W/m² | - |
| 1788076286 | 22.78° C | 58% | 1189.5 hPa | 0 mm | - | 0 W/m² | - |
| 1788075982 | 22.78° C | 58% | 1189.6 hPa | 0 mm | - | 0 W/m² | - |
| 1788075677 | 22.78° C | 59% | 1189.3 hPa | 0 mm | - | 0 W/m² | - |
| 1788075374 | 22.78° C | 59% | 1189.5 hPa | 0 mm | - | 0 W/m² | - |
| 1788075068 | 22.78° C | 60% | 1189.7 hPa | 0 mm | - | 0 W/m² | - |
| 1788074764 | 22.78° C | 60% | 1189.7 hPa | 0 mm | - | 0 W/m² | - |
* Rain latest hour (hover to see other rain measurements)
** Current wind speed in m/s (hover to see current wind gust speed)